| time (UTC) | temp C | wind direction | speed KPH | gust KPH | rain 1hr cm | rain 24hr cm | rain mn cm | humidity % | barometer mb |
| 20260505024704 | 19 | 334 | 9.7 | 12.9 | 0.00 | 0.00 | 0.00 | 68 | 1031.6 |
| 20260505024204 | 19 | 337 | 9.7 | 20.9 | 0.00 | 0.00 | 0.00 | 67 | 1031.4 |
| 20260505023704 | 19 | 140 | 1.6 | 4.8 | 0.00 | 0.00 | 0.00 | 66 | 1031.5 |
| 20260505023204 | 19 | 34 | 3.2 | 9.7 | 0.00 | 0.00 | 0.00 | 66 | 1031.5 |
| 20260505021705 | 20 | 34 | 1.6 | 8.0 | 0.00 | 0.00 | 0.00 | 65 | 1031.8 |
| 20260505021204 | 19 | 67 | 1.6 | 8.0 | 0.00 | 0.00 | 0.00 | 65 | 1031.7 |
| 20260505020204 | 20 | 16 | 4.8 | 11.3 | 0.00 | 0.00 | 0.00 | 63 | 1031.9 |
| 20260505015704 | 20 | 357 | 8.0 | 11.3 | 0.00 | 0.00 | 0.00 | 62 | 1031.9 |
| 20260505015204 | 20 | 18 | 4.8 | 11.3 | 0.00 | 0.00 | 0.00 | 63 | 1032.0 |
| 20260505014205 | 20 | 5 | 3.2 | 12.9 | 0.00 | 0.00 | 0.00 | 66 | 1032.0 |
| 20260505012704 | 19 | 103 | 3.2 | 8.0 | 0.00 | 0.00 | 0.00 | 68 | 1032.2 |
| 20260505012204 | 19 | 113 | 3.2 | 9.7 | 0.00 | 0.00 | 0.00 | 67 | 1032.1 |
| 20260505011704 | 19 | 97 | 4.8 | 9.7 | 0.00 | 0.00 | 0.00 | 70 | 1032.1 |
| 20260505011204 | 19 | 59 | 3.2 | 8.0 | 0.00 | 0.00 | 0.00 | 68 | 1032.1 |
| 20260505010204 | 19 | 122 | 3.2 | 9.7 | 0.00 | 0.00 | 0.00 | 67 | 1032.3 |
| 20260505005205 | 19 | 96 | 3.2 | 9.7 | 0.00 | 0.00 | 0.00 | 67 | 1032.5 |
| 20260505004705 | 19 | 18 | 4.8 | 12.9 | 0.00 | 0.00 | 0.00 | 67 | 1032.6 |
| 20260505004204 | 19 | 18 | 8.0 | 9.7 | 0.00 | 0.00 | 0.00 | 66 | 1032.6 |
| 20260505003704 | 19 | 78 | 4.8 | 11.3 | 0.00 | 0.00 | 0.00 | 69 | 1032.6 |
| 20260505003204 | 18 | 108 | 1.6 | 8.0 | 0.00 | 0.00 | 0.00 | 68 | 1032.8 |
| 20260505002704 | 18 | 78 | 4.8 | 9.7 | 0.00 | 0.00 | 0.00 | 68 | 1032.9 |
| 20260505002205 | 18 | 19 | 4.8 | 11.3 | 0.00 | 0.00 | 0.00 | 69 | 1033.0 |
| 20260505001704 | 18 | 18 | 3.2 | 8.0 | 0.00 | 0.00 | 0.00 | 69 | 1033.0 |
| 20260505001205 | 18 | 8 | 4.8 | 8.0 | 0.00 | 0.00 | 0.00 | 68 | 1033.1 |
| 20260505000704 | 18 | 20 | 3.2 | 8.0 | 0.00 | 0.00 | 0.00 | 68 | 1033.1 |
| 20260505000204 | 18 | 353 | 3.2 | 8.0 | 0.00 | 0.00 | 0.00 | 69 | 1033.2 |
| 20260504235704 | 18 | 37 | 4.8 | 9.7 | 0.00 | 0.00 | 0.00 | 69 | 1033.3 |
| 20260504234705 | 18 | 91 | 3.2 | 8.0 | 0.00 | 0.00 | 0.00 | 71 | 1033.4 |
| 20260504234204 | 18 | 63 | 3.2 | 8.0 | 0.00 | 0.00 | 0.00 | 71 | 1033.4 |
| 20260504233704 | 17 | 80 | 4.8 | 9.7 | 0.00 | 0.00 | 0.00 | 72 | 1033.3 |
| 20260504233205 | 17 | 121 | 1.6 | 9.7 | 0.00 | 0.00 | 0.00 | 72 | 1033.6 |
| 20260504232704 | 17 | 33 | 1.6 | 9.7 | 0.00 | 0.00 | 0.00 | 72 | 1033.6 |
| 20260504232205 | 17 | 27 | 3.2 | 8.0 | 0.00 | 0.00 | 0.00 | 75 | 1033.6 |
| 20260504231704 | 17 | 0 | 1.6 | 3.2 | 0.00 | 0.00 | 0.00 | 76 | 1033.6 |
| 20260504230704 | 16 | 77 | 3.2 | 4.8 | 0.00 | 0.00 | 0.00 | 78 | 1033.9 |
| 20260504230204 | 16 | 176 | 1.6 | 8.0 | 0.00 | 0.00 | 0.00 | 79 | 1033.9 |
| 20260504225204 | 16 | 14 | 1.6 | 3.2 | 0.00 | 0.00 | 0.00 | 80 | 1033.9 |
| 20260504224704 | 15 | 214 | 3.2 | 4.8 | 0.00 | 0.00 | 0.00 | 81 | 1034.0 |
| 20260504223705 | 15 | 282 | 1.6 | 4.8 | 0.00 | 0.00 | 0.00 | 82 | 1034.0 |
| 20260504223203 | 15 | 268 | 3.2 | 4.8 | 0.00 | 0.00 | 0.00 | 82 | 1034.0 |
| 20260504222204 | 15 | 280 | 3.2 | 4.8 | 0.00 | 0.00 | 0.00 | 83 | 1034.1 |
| 20260504221703 | 15 | 272 | 3.2 | 8.0 | 0.00 | 0.00 | 0.00 | 83 | 1034.0 |
| 20260504221204 | 15 | 285 | 4.8 | 9.7 | 0.00 | 0.00 | 0.00 | 84 | 1034.2 |
| 20260504220704 | 15 | 288 | 8.0 | 11.3 | 0.00 | 0.00 | 0.00 | 83 | 1034.2 |
| 20260504220204 | 15 | 278 | 8.0 | 14.5 | 0.00 | 0.00 | 0.00 | 83 | 1033.9 |
| 20260504215704 | 15 | 302 | 8.0 | 9.7 | 0.00 | 0.00 | 0.00 | 82 | 1034.1 |
| 20260504215204 | 14 | 295 | 8.0 | 9.7 | 0.00 | 0.00 | 0.00 | 83 | 1033.9 |
| 20260504213705 | 14 | 305 | 8.0 | 8.0 | 0.00 | 0.00 | 0.00 | 82 | 1033.9 |
| 20260504213204 | 14 | 347 | 4.8 | 8.0 | 0.00 | 0.00 | 0.00 | 83 | 1034.1 |
| 20260504212704 | 13 | 298 | 3.2 | 3.2 | 0.00 | 0.00 | 0.00 | 84 | 1034.0 |
| 20260504212204 | 13 | 301 | 3.2 | 4.8 | 0.00 | 0.00 | 0.00 | 84 | 1033.9 |
| 20260504211704 | 13 | 288 | 4.8 | 8.0 | 0.00 | 0.00 | 0.00 | 85 | 1033.9 |
| 20260504210704 | 13 | 270 | 3.2 | 3.2 | 0.00 | 0.00 | 0.00 | 88 | 1034.0 |
| 20260504210205 | 12 | 287 | 1.6 | 3.2 | 0.00 | 0.00 | 0.00 | 89 | 1034.0 |
| 20260504205703 | 12 | 293 | 3.2 | 8.0 | 0.00 | 0.00 | 0.00 | 90 | 1033.9 |
| 20260504205204 | 12 | 280 | 4.8 | 9.7 | 0.00 | 0.00 | 0.00 | 90 | 1034.1 |
| 20260504204704 | 12 | 249 | 3.2 | 4.8 | 0.00 | 0.00 | 0.00 | 91 | 1033.9 |
| 20260504204204 | 12 | 214 | 0.0 | 1.6 | 0.00 | 0.00 | 0.00 | 91 | 1034.0 |
| 20260504203704 | 12 | 242 | 1.6 | 3.2 | 0.00 | 0.00 | 0.00 | 91 | 1034.1 |
| 20260504203204 | 12 | 300 | 4.8 | 8.0 | 0.00 | 0.00 | 0.00 | 92 | 1034.2 |
| 20260504202704 | 11 | 270 | 4.8 | 8.0 | 0.00 | 0.00 | 0.00 | 92 | 1034.2 |
| 20260504202204 | 11 | 255 | 1.6 | 1.6 | 0.00 | 0.00 | 0.00 | 92 | 1034.0 |
| 20260504201704 | 11 | 328 | 1.6 | 9.7 | 0.00 | 0.00 | 0.00 | 92 | 1034.1 |
| 20260504200705 | 11 | 287 | 3.2 | 8.0 | 0.00 | 0.00 | 0.00 | 92 | 1034.0 |
| 20260504200204 | 11 | 127 | 0.0 | 3.2 | 0.00 | 0.00 | 0.00 | 92 | 1033.7 |
| 20260504195205 | 11 | 129 | 1.6 | 3.2 | 0.00 | 0.00 | 0.00 | 93 | 1033.9 |
| 20260504194704 | 11 | 308 | 0.0 | 3.2 | 0.00 | 0.00 | 0.00 | 93 | 1033.8 |
| 20260504194207 | 11 | 355 | 1.6 | 3.2 | 0.00 | 0.00 | 0.00 | 93 | 1033.8 |
| 20260504193205 | 11 | 326 | 1.6 | 3.2 | 0.00 | 0.00 | 0.00 | 93 | 1033.9 |
| 20260504192704 | 11 | 358 | 1.6 | 3.2 | 0.00 | 0.00 | 0.00 | 93 | 1033.8 |
| 20260504192203 | 11 | 2 | 0.0 | 1.6 | 0.00 | 0.00 | 0.00 | 93 | 1033.7 |
| 20260504191704 | 11 | 143 | 0.0 | 1.6 | 0.00 | 0.00 | 0.00 | 93 | 1033.9 |
| 20260504191204 | 11 | 131 | 0.0 | 3.2 | 0.00 | 0.00 | 0.00 | 93 | 1033.6 |
| 20260504190703 | 11 | 231 | 1.6 | 3.2 | 0.00 | 0.00 | 0.00 | 93 | 1033.6 |
| 20260504190204 | 11 | 296 | 1.6 | 3.2 | 0.00 | 0.00 | 0.00 | 93 | 1033.5 |
| 20260504185704 | 11 | 211 | 0.0 | 1.6 | 0.00 | 0.00 | 0.00 | 93 | 1033.7 |
| 20260504185204 | 11 | 268 | 1.6 | 3.2 | 0.00 | 0.00 | 0.00 | 93 | 1033.5 |
| 20260504184704 | 11 | 275 | 3.2 | 3.2 | 0.00 | 0.00 | 0.00 | 93 | 1033.6 |
| 20260504184204 | 11 | 245 | 0.0 | 3.2 | 0.00 | 0.00 | 0.00 | 93 | 1033.6 |
| 20260504183704 | 11 | 232 | 1.6 | 3.2 | 0.00 | 0.00 | 0.00 | 93 | 1033.7 |
| 20260504183205 | 11 | 262 | 0.0 | 3.2 | 0.00 | 0.00 | 0.00 | 93 | 1033.7 |
| 20260504182704 | 11 | 5 | 0.0 | 3.2 | 0.00 | 0.00 | 0.00 | 93 | 1033.8 |
| 20260504182204 | 11 | 299 | 3.2 | 3.2 | 0.00 | 0.00 | 0.00 | 93 | 1033.7 |
| 20260504181703 | 11 | 241 | 0.0 | 3.2 | 0.00 | 0.00 | 0.00 | 93 | 1033.9 |
| 20260504181204 | 11 | 264 | 4.8 | 8.0 | 0.00 | 0.00 | 0.00 | 93 | 1033.8 |
| 20260504180705 | 11 | 255 | 3.2 | 4.8 | 0.00 | 0.00 | 0.00 | 93 | 1033.9 |
| 20260504180204 | 11 | 256 | 1.6 | 4.8 | 0.00 | 0.00 | 0.00 | 93 | 1033.7 |
| 20260504175704 | 11 | 308 | 1.6 | 3.2 | 0.00 | 0.00 | 0.00 | 93 | 1033.8 |
| 20260504175204 | 11 | 313 | 1.6 | 4.8 | 0.00 | 0.00 | 0.00 | 93 | 1033.8 |
| 20260504174704 | 11 | 286 | 3.2 | 4.8 | 0.00 | 0.00 | 0.00 | 93 | 1033.8 |
| 20260504174204 | 11 | 284 | 4.8 | 8.0 | 0.00 | 0.00 | 0.00 | 93 | 1033.8 |
| 20260504173204 | 11 | 297 | 1.6 | 3.2 | 0.00 | 0.00 | 0.00 | 93 | 1033.8 |
| 20260504172705 | 11 | 346 | 0.0 | 3.2 | 0.00 | 0.00 | 0.00 | 93 | 1033.7 |
| 20260504172204 | 11 | 326 | 3.2 | 4.8 | 0.00 | 0.00 | 0.00 | 93 | 1033.8 |
| 20260504171704 | 11 | 329 | 3.2 | 8.0 | 0.00 | 0.00 | 0.00 | 93 | 1033.9 |
| 20260504171204 | 11 | 313 | 3.2 | 4.8 | 0.00 | 0.00 | 0.00 | 92 | 1033.6 |
| 20260504170705 | 11 | 341 | 1.6 | 3.2 | 0.00 | 0.00 | 0.00 | 92 | 1033.8 |
| 20260504170204 | 11 | 207 | 0.0 | 3.2 | 0.00 | 0.00 | 0.00 | 92 | 1033.7 |
| 20260504150704 | 10 | 290 | 0.0 | 3.2 | 0.00 | 0.00 | 0.00 | 91 | 1034.2 |
| 20260504141204 | 11 | 224 | 3.2 | 3.2 | 0.00 | 0.00 | 0.00 | 88 | 1034.8 |
| 20260504140704 | 11 | 243 | 3.2 | 3.2 | 0.00 | 0.00 | 0.00 | 88 | 1034.6 |
| 20260504140204 | 11 | 231 | 3.2 | 4.8 | 0.00 | 0.00 | 0.00 | 89 | 1034.9 |
| 20260504130704 | 11 | 279 | 4.8 | 8.0 | 0.00 | 0.00 | 0.00 | 87 | 1035.2 |
| 20260504130204 | 11 | 280 | 4.8 | 8.0 | 0.00 | 0.00 | 0.00 | 87 | 1035.3 |
| 20260504120205 | 12 | 190 | 3.2 | 3.2 | 0.00 | 0.00 | 0.00 | 83 | 1035.4 |
| 20260504110204 | 11 | 72 | 1.6 | 3.2 | 0.00 | 0.00 | 0.00 | 89 | 1035.1 |
| 20260504100205 | 10 | 257 | 0.0 | 3.2 | 0.00 | 0.00 | 0.00 | 88 | 1035.5 |
| 20260504081705 | 12 | 326 | 1.6 | 4.8 | 0.00 | 0.00 | 0.00 | 82 | 1035.1 |
| 20260504081205 | 12 | 140 | 0.0 | 3.2 | 0.00 | 0.00 | 0.00 | 82 | 1035.4 |
| 20260504080705 | 12 | 122 | 1.6 | 3.2 | 0.00 | 0.00 | 0.00 | 82 | 1035.2 |
| 20260504080205 | 12 | 277 | 0.0 | 1.6 | 0.00 | 0.00 | 0.00 | 82 | 1035.3 |
| 20260504070204 | 14 | 25 | 4.8 | 8.0 | 0.00 | 0.00 | 0.00 | 72 | 1034.8 |
| 20260504060204 | 15 | 36 | 9.7 | 14.5 | 0.00 | 0.00 | 0.00 | 69 | 1034.1 |
| 20260504050704 | 16 | 34 | 4.8 | 11.3 | 0.00 | 0.00 | 0.00 | 64 | 1033.8 |
| 20260504050204 | 16 | 26 | 4.8 | 8.0 | 0.00 | 0.00 | 0.00 | 64 | 1033.7 |
| 20260504045704 | 16 | 30 | 3.2 | 8.0 | 0.00 | 0.00 | 0.00 | 65 | 1034.0 |
| 20260504045205 | 17 | 65 | 4.8 | 8.0 | 0.00 | 0.00 | 0.00 | 65 | 1033.9 |
| 20260504044704 | 17 | 28 | 6.4 | 9.7 | 0.00 | 0.00 | 0.00 | 64 | 1033.9 |
| 20260504044205 | 17 | 19 | 8.0 | 9.7 | 0.00 | 0.00 | 0.00 | 63 | 1034.0 |
| 20260504043704 | 17 | 19 | 8.0 | 11.3 | 0.00 | 0.00 | 0.00 | 64 | 1034.0 |
| 20260504043204 | 17 | 27 | 4.8 | 8.0 | 0.00 | 0.00 | 0.00 | 64 | 1034.1 |
| 20260504042204 | 17 | 46 | 4.8 | 9.7 | 0.00 | 0.00 | 0.00 | 63 | 1033.9 |
| 20260504041204 | 17 | 52 | 4.8 | 8.0 | 0.00 | 0.00 | 0.00 | 63 | 1033.9 |
| 20260504040704 | 17 | 42 | 4.8 | 8.0 | 0.00 | 0.00 | 0.00 | 63 | 1033.9 |
| 20260504035705 | 17 | 37 | 8.0 | 12.9 | 0.00 | 0.00 | 0.00 | 61 | 1034.1 |
| 20260504035204 | 17 | 24 | 6.4 | 8.0 | 0.00 | 0.00 | 0.00 | 61 | 1033.9 |
| 20260504034704 | 17 | 359 | 4.8 | 9.7 | 0.00 | 0.00 | 0.00 | 60 | 1033.8 |
| 20260504034204 | 18 | 358 | 3.2 | 8.0 | 0.00 | 0.00 | 0.00 | 62 | 1033.9 |
| 20260504033705 | 18 | 339 | 4.8 | 9.7 | 0.00 | 0.00 | 0.00 | 62 | 1034.0 |
| 20260504032704 | 18 | 30 | 4.8 | 11.3 | 0.00 | 0.00 | 0.00 | 58 | 1033.9 |
| 20260504032203 | 18 | 18 | 8.0 | 11.3 | 0.00 | 0.00 | 0.00 | 58 | 1033.9 |
| 20260504031204 | 18 | 333 | 9.7 | 14.5 | 0.00 | 0.00 | 0.00 | 59 | 1033.9 |
| 20260504030204 | 18 | 348 | 9.7 | 16.1 | 0.00 | 0.00 | 0.00 | 61 | 1033.9 |
| 20260504025704 | 18 | 16 | 6.4 | 19.3 | 0.00 | 0.00 | 0.00 | 58 | 1034.1 |
| 20260504025204 | 18 | 339 | 8.0 | 12.9 | 0.00 | 0.00 | 0.00 | 58 | 1034.0 |